Time,TemperatureF,DewpointF,PressureIn,WindDirection,WindDirectionDegrees,WindSpeedMPH,WindSpeedGustMPH,Humidity,HourlyPrecipIn,Conditions,Clouds,dailyrainin,SolarRadiationWatts/m^2,SoftwareType,DateUTC
2013-11-03 00:06:00,49.6,43.7,30.17,NNE,28,0.0,0.0,80,0.00,,,0.00,0,Wunderground v.1.15,2013-11-03 05:06:00,
2013-11-03 00:27:00,48.8,43.5,30.17,NNE,28,0.0,0.0,82,0.00,,,0.00,0,Wunderground v.1.15,2013-11-03 05:27:00,
2013-11-03 00:32:00,48.7,43.8,30.17,NNE,29,0.0,0.0,83,0.00,,,0.00,0,Wunderground v.1.15,2013-11-03 05:32:00,
2013-11-03 00:37:00,48.5,43.6,30.17,NNE,28,0.0,0.0,83,0.00,,,0.00,0,Wunderground v.1.15,2013-11-03 05:37:00,
2013-11-03 00:47:00,48.3,43.7,30.17,NNE,28,0.0,0.0,84,0.00,,,0.00,0,Wunderground v.1.15,2013-11-03 05:47:00,
2013-11-03 00:53:00,48.1,43.8,30.17,NNE,28,0.0,0.0,85,0.00,,,0.00,0,Wunderground v.1.15,2013-11-03 05:53:00,
2013-11-03 00:58:00,47.9,43.6,30.17,NNE,28,0.0,0.0,85,0.00,,,0.00,0,Wunderground v.1.15,2013-11-03 05:58:00,
2013-11-03 01:04:00,47.9,43.6,30.17,NNE,28,0.0,0.0,85,0.00,,,0.00,0,Wunderground v.1.15,2013-11-03 06:04:00,
2013-11-03 01:09:00,47.8,43.5,30.17,NNE,28,0.0,0.0,85,0.00,,,0.00,0,Wunderground v.1.15,2013-11-03 06:09:00,
2013-11-03 01:14:00,47.7,43.4,30.17,NNE,28,0.0,0.0,85,0.00,,,0.00,0,Wunderground v.1.15,2013-11-03 06:14:00,
2013-11-03 01:19:00,47.6,43.3,30.17,NNE,28,0.0,0.0,85,0.00,,,0.00,0,Wunderground v.1.15,2013-11-03 06:19:00,
2013-11-03 01:24:00,47.4,43.1,30.17,NNE,28,0.0,0.0,85,0.00,,,0.00,0,Wunderground v.1.15,2013-11-03 06:24:00,
2013-11-03 01:29:00,47.3,43.3,30.17,NNE,28,0.0,0.0,86,0.00,,,0.00,0,Wunderground v.1.15,2013-11-03 06:29:00,
2013-11-03 01:50:00,46.8,42.8,30.17,NNE,28,0.0,0.0,86,0.00,,,0.00,0,Wunderground v.1.15,2013-11-03 06:50:00,
2013-11-03 01:55:00,46.5,42.8,30.17,NNE,28,0.0,0.0,87,0.00,,,0.00,0,Wunderground v.1.15,2013-11-03 06:55:00,
2013-11-03 01:01:00,46.2,42.8,30.17,NNE,28,0.0,0.0,88,0.00,,,0.00,0,Wunderground v.1.15,2013-11-03 07:01:00,
2013-11-03 01:06:00,46.0,42.6,30.17,NNE,28,0.0,0.0,88,0.00,,,0.00,0,Wunderground v.1.15,2013-11-03 07:06:00,
2013-11-03 01:11:00,45.7,42.6,30.17,NNE,28,0.0,0.0,89,0.00,,,0.00,0,Wunderground v.1.15,2013-11-03 07:11:00,
2013-11-03 01:16:00,45.5,42.4,30.17,NNE,28,0.0,0.0,89,0.00,,,0.00,0,Wunderground v.1.15,2013-11-03 07:16:00,
2013-11-03 01:21:00,45.2,42.2,30.17,NNE,28,0.0,0.0,89,0.00,,,0.00,0,Wunderground v.1.15,2013-11-03 07:21:00,
2013-11-03 01:41:00,44.7,42.2,30.17,NNE,28,0.0,0.0,91,0.00,,,0.00,0,Wunderground v.1.15,2013-11-03 07:41:00,
2013-11-03 01:46:00,44.6,42.1,30.17,NNE,28,0.0,0.0,91,0.00,,,0.00,0,Wunderground v.1.15,2013-11-03 07:46:00,
2013-11-03 01:51:00,44.6,42.1,30.16,NNE,28,0.0,0.0,91,0.00,,,0.00,0,Wunderground v.1.15,2013-11-03 07:51:00,
2013-11-03 01:57:00,44.5,42.3,30.17,NNE,28,0.0,0.0,92,0.00,,,0.00,0,Wunderground v.1.15,2013-11-03 07:57:00,
2013-11-03 02:02:00,44.5,42.3,30.17,NNE,28,0.0,0.0,92,0.00,,,0.00,0,Wunderground v.1.15,2013-11-03 08:02:00,
2013-11-03 02:07:00,44.4,42.2,30.17,NNE,28,0.0,0.0,92,0.00,,,0.00,0,Wunderground v.1.15,2013-11-03 08:07:00,
2013-11-03 02:12:00,44.4,42.2,30.17,NNE,28,0.0,0.0,92,0.00,,,0.00,0,Wunderground v.1.15,2013-11-03 08:12:00,
2013-11-03 02:17:00,44.4,41.9,30.17,NNE,28,0.0,0.0,91,0.00,,,0.00,0,Wunderground v.1.15,2013-11-03 08:17:00,
2013-11-03 02:22:00,44.4,41.9,30.17,NNE,28,0.0,0.0,91,0.00,,,0.00,0,Wunderground v.1.15,2013-11-03 08:22:00,
2013-11-03 02:28:00,44.5,42.0,30.17,NNE,28,0.0,0.0,91,0.00,,,0.00,0,Wunderground v.1.15,2013-11-03 08:28:00,
2013-11-03 02:33:00,44.5,42.0,30.17,NNE,28,0.0,0.0,91,0.00,,,0.00,0,Wunderground v.1.15,2013-11-03 08:33:00,
2013-11-03 02:43:00,44.5,42.0,30.17,NNE,29,0.0,0.0,91,0.00,,,0.00,0,Wunderground v.1.15,2013-11-03 08:43:00,
2013-11-03 02:48:00,44.5,41.7,30.17,NNE,28,0.0,0.0,90,0.00,,,0.00,0,Wunderground v.1.15,2013-11-03 08:48:00,
2013-11-03 02:54:00,44.5,41.7,30.17,NNE,28,0.0,0.0,90,0.00,,,0.00,0,Wunderground v.1.15,2013-11-03 08:54:00,
2013-11-03 03:04:00,44.5,41.5,30.17,NNE,28,0.0,0.0,89,0.00,,,0.00,0,Wunderground v.1.15,2013-11-03 09:04:00,
2013-11-03 03:09:00,44.6,41.6,30.16,NNE,28,0.0,0.0,89,0.00,,,0.00,0,Wunderground v.1.15,2013-11-03 09:09:00,
2013-11-03 03:14:00,44.6,41.6,30.16,NNE,29,0.0,0.0,89,0.00,,,0.00,0,Wunderground v.1.15,2013-11-03 09:14:00,
2013-11-03 03:25:00,44.8,41.5,30.16,NNE,29,0.0,0.0,88,0.00,,,0.00,0,Wunderground v.1.15,2013-11-03 09:25:00,
2013-11-03 03:35:00,44.9,41.6,30.16,NNE,26,0.0,0.0,88,0.00,,,0.00,0,Wunderground v.1.15,2013-11-03 09:35:00,
2013-11-03 03:46:00,44.9,41.3,30.16,NNE,29,0.0,3.0,87,0.00,,,0.00,0,Wunderground v.1.15,2013-11-03 09:46:00,
2013-11-03 03:51:00,44.8,41.2,30.16,NNE,29,0.0,0.0,87,0.00,,,0.00,0,Wunderground v.1.15,2013-11-03 09:51:00,
2013-11-03 03:56:00,44.8,41.2,30.16,NNE,29,0.0,0.0,87,0.00,,,0.00,0,Wunderground v.1.15,2013-11-03 09:56:00,
2013-11-03 04:06:00,44.8,41.5,30.16,NNE,29,0.0,0.0,88,0.00,,,0.00,0,Wunderground v.1.15,2013-11-03 10:06:00,
2013-11-03 04:12:00,44.7,41.4,30.16,NNE,29,0.0,0.0,88,0.00,,,0.00,0,Wunderground v.1.15,2013-11-03 10:12:00,
2013-11-03 04:17:00,44.6,41.3,30.16,NNE,29,0.0,1.0,88,0.00,,,0.00,0,Wunderground v.1.15,2013-11-03 10:17:00,
2013-11-03 04:27:00,44.6,41.0,30.16,NNE,29,0.0,0.0,87,0.00,,,0.00,0,Wunderground v.1.15,2013-11-03 10:27:00,
2013-11-03 04:48:00,44.5,40.9,30.17,NNE,29,0.0,1.0,87,0.00,,,0.00,0,Wunderground v.1.15,2013-11-03 10:48:00,
2013-11-03 04:53:00,44.5,40.9,30.17,NNE,29,0.0,0.0,87,0.00,,,0.00,0,Wunderground v.1.15,2013-11-03 10:53:00,
2013-11-03 04:59:00,44.4,40.8,30.17,NNE,29,0.0,3.0,87,0.00,,,0.00,0,Wunderground v.1.15,2013-11-03 10:59:00,
2013-11-03 05:09:00,44.3,40.7,30.17,NNE,30,0.0,0.0,87,0.00,,,0.00,0,Wunderground v.1.15,2013-11-03 11:09:00,
2013-11-03 05:14:00,44.3,40.7,30.17,NNE,30,0.0,1.0,87,0.00,,,0.00,0,Wunderground v.1.15,2013-11-03 11:14:00,
2013-11-03 05:19:00,44.3,40.7,30.17,NNE,29,0.0,3.0,87,0.00,,,0.00,0,Wunderground v.1.15,2013-11-03 11:19:00,
2013-11-03 05:24:00,44.3,40.7,30.17,NNE,29,0.0,2.0,87,0.00,,,0.00,0,Wunderground v.1.15,2013-11-03 11:24:00,
2013-11-03 05:29:00,44.2,40.6,30.17,NNE,29,0.0,2.0,87,0.00,,,0.00,0,Wunderground v.1.15,2013-11-03 11:29:00,
2013-11-03 05:34:00,44.2,40.6,30.17,NNE,29,0.0,0.0,87,0.00,,,0.00,0,Wunderground v.1.15,2013-11-03 11:34:00,
2013-11-03 05:39:00,44.1,40.5,30.18,NNE,29,0.0,0.0,87,0.00,,,0.00,0,Wunderground v.1.15,2013-11-03 11:39:00,
2013-11-03 05:45:00,44.0,40.4,30.18,NNE,29,0.0,0.0,87,0.00,,,0.00,0,Wunderground v.1.15,2013-11-03 11:45:00,
2013-11-03 05:50:00,43.9,40.6,30.18,NNE,29,0.0,0.0,88,0.00,,,0.00,0,Wunderground v.1.15,2013-11-03 11:50:00,
2013-11-03 06:00:00,43.7,40.4,30.18,NNE,29,0.0,0.0,88,0.00,,,0.00,0,Wunderground v.1.15,2013-11-03 12:00:00,
2013-11-03 06:05:00,43.6,40.3,30.18,NNE,29,0.0,0.0,88,0.00,,,0.00,0,Wunderground v.1.15,2013-11-03 12:05:00,
2013-11-03 06:10:00,43.5,40.2,30.18,NNE,29,0.0,0.0,88,0.00,,,0.00,0,Wunderground v.1.15,2013-11-03 12:10:00,
2013-11-03 06:21:00,43.3,40.3,30.18,NNE,29,0.0,0.0,89,0.00,,,0.00,5,Wunderground v.1.15,2013-11-03 12:21:00,
2013-11-03 06:26:00,43.2,40.2,30.18,NNE,25,0.0,3.0,89,0.00,,,0.00,9,Wunderground v.1.15,2013-11-03 12:26:00,
2013-11-03 06:32:00,43.2,40.2,30.18,NNE,26,1.0,1.0,89,0.00,,,0.00,11,Wunderground v.1.15,2013-11-03 12:32:00,
2013-11-03 06:42:00,43.2,40.2,30.19,NNE,28,0.0,2.0,89,0.00,,,0.00,14,Wunderground v.1.15,2013-11-03 12:42:00,
2013-11-03 06:47:00,43.3,40.3,30.20,NNE,28,0.0,2.0,89,0.00,,,0.00,18,Wunderground v.1.15,2013-11-03 12:47:00,
2013-11-03 07:02:00,43.6,40.6,30.20,NNE,21,1.0,1.0,89,0.00,,,0.00,28,Wunderground v.1.15,2013-11-03 13:02:00,
2013-11-03 07:07:00,43.8,40.8,30.20,NE,36,0.0,1.0,89,0.00,,,0.00,23,Wunderground v.1.15,2013-11-03 13:07:00,
2013-11-03 07:12:00,43.9,40.9,30.21,NE,36,0.0,0.0,89,0.00,,,0.00,25,Wunderground v.1.15,2013-11-03 13:12:00,
2013-11-03 07:23:00,44.5,41.2,30.21,ENE,65,1.0,1.0,88,0.00,,,0.00,26,Wunderground v.1.15,2013-11-03 13:23:00,
2013-11-03 07:28:00,44.9,41.3,30.21,ESE,108,1.0,5.0,87,0.00,,,0.00,116,Wunderground v.1.15,2013-11-03 13:28:00,
2013-11-03 07:33:00,45.3,41.4,30.21,NE,49,1.0,6.0,86,0.00,,,0.00,176,Wunderground v.1.15,2013-11-03 13:33:00,
2013-11-03 07:44:00,46.8,41.9,30.21,NE,52,2.0,3.0,83,0.00,,,0.00,211,Wunderground v.1.15,2013-11-03 13:44:00,
2013-11-03 07:49:00,47.3,42.1,30.22,NE,42,1.0,5.0,82,0.00,,,0.00,227,Wunderground v.1.15,2013-11-03 13:49:00,
2013-11-03 07:54:00,47.8,42.3,30.22,NE,36,1.0,1.0,81,0.00,,,0.00,250,Wunderground v.1.15,2013-11-03 13:54:00,
2013-11-03 08:05:00,48.8,42.6,30.22,East,100,1.0,2.0,79,0.00,,,0.00,285,Wunderground v.1.15,2013-11-03 14:05:00,
2013-11-03 08:10:00,49.2,43.0,30.22,ENE,61,0.0,0.0,79,0.00,,,0.00,301,Wunderground v.1.15,2013-11-03 14:10:00,
2013-11-03 08:15:00,49.6,43.0,30.22,North,10,1.0,7.0,78,0.00,,,0.00,316,Wunderground v.1.15,2013-11-03 14:15:00,
2013-11-03 08:26:00,50.3,43.7,30.22,ENE,58,1.0,1.0,78,0.00,,,0.00,352,Wunderground v.1.15,2013-11-03 14:26:00,
2013-11-03 08:36:00,51.1,43.8,30.23,NE,47,2.0,5.0,76,0.00,,,0.00,381,Wunderground v.1.15,2013-11-03 14:36:00,
2013-11-03 08:47:00,52.0,44.3,30.23,NE,55,2.0,4.0,75,0.00,,,0.00,415,Wunderground v.1.15,2013-11-03 14:47:00,
2013-11-03 08:52:00,52.3,43.9,30.23,NE,48,2.0,4.0,73,0.00,,,0.00,427,Wunderground v.1.15,2013-11-03 14:52:00,
2013-11-03 08:58:00,52.7,44.3,30.23,NNE,29,2.0,6.0,73,0.00,,,0.00,445,Wunderground v.1.15,2013-11-03 14:58:00,
2013-11-03 09:04:00,52.9,44.5,30.23,ENE,65,3.0,8.0,73,0.00,,,0.00,459,Wunderground v.1.15,2013-11-03 15:04:00,
2013-11-03 09:09:00,53.2,44.4,30.23,NE,48,2.0,8.0,72,0.00,,,0.00,471,Wunderground v.1.15,2013-11-03 15:09:00,
2013-11-03 09:14:00,53.7,44.5,30.24,SSE,158,1.0,7.0,71,0.00,,,0.00,485,Wunderground v.1.15,2013-11-03 15:14:00,
2013-11-03 09:28:00,55.0,45.4,30.23,NE,43,1.0,6.0,70,0.00,,,0.00,519,Wunderground v.1.15,2013-11-03 15:28:00,
2013-11-03 09:34:00,55.2,45.6,30.23,NNW,336,1.0,4.0,70,0.00,,,0.00,533,Wunderground v.1.15,2013-11-03 15:34:00,
2013-11-03 09:39:00,55.5,45.5,30.23,East,81,1.0,7.0,69,0.00,,,0.00,541,Wunderground v.1.15,2013-11-03 15:39:00,
2013-11-03 09:44:00,55.4,45.0,30.23,ENE,61,1.0,3.0,68,0.00,,,0.00,554,Wunderground v.1.15,2013-11-03 15:44:00,
2013-11-03 09:49:00,55.7,45.7,30.23,ENE,75,1.0,4.0,69,0.00,,,0.00,563,Wunderground v.1.15,2013-11-03 15:49:00,
2013-11-03 09:54:00,56.2,45.8,30.23,ENE,75,0.0,1.0,68,0.00,,,0.00,575,Wunderground v.1.15,2013-11-03 15:54:00,
2013-11-03 09:59:00,56.5,45.7,30.22,NE,52,2.0,9.0,67,0.00,,,0.00,585,Wunderground v.1.15,2013-11-03 15:59:00,
2013-11-03 10:05:00,56.6,43.7,30.22,ESE,119,4.0,8.0,62,0.00,,,0.00,599,Wunderground v.1.15,2013-11-03 16:05:00,
2013-11-03 10:10:00,56.7,43.4,30.22,NW,326,3.0,3.0,61,0.00,,,0.00,605,Wunderground v.1.15,2013-11-03 16:10:00,
2013-11-03 10:16:00,57.1,43.8,30.22,North,360,2.0,6.0,61,0.00,,,0.00,617,Wunderground v.1.15,2013-11-03 16:16:00,
2013-11-03 10:22:00,57.6,44.2,30.22,SSE,147,2.0,12.0,61,0.00,,,0.00,626,Wunderground v.1.15,2013-11-03 16:22:00,
2013-11-03 10:27:00,57.9,43.2,30.22,East,96,2.0,12.0,58,0.00,,,0.00,633,Wunderground v.1.15,2013-11-03 16:27:00,
2013-11-03 10:32:00,58.1,42.5,30.22,East,87,3.0,3.0,56,0.00,,,0.00,642,Wunderground v.1.15,2013-11-03 16:32:00,
2013-11-03 10:38:00,58.4,42.3,30.21,ENE,70,2.0,3.0,55,0.00,,,0.00,649,Wunderground v.1.15,2013-11-03 16:38:00,
2013-11-03 10:44:00,58.8,43.6,30.21,NNE,26,3.0,11.0,57,0.00,,,0.00,657,Wunderground v.1.15,2013-11-03 16:44:00,
2013-11-03 10:49:00,59.0,44.2,30.21,East,88,3.0,11.0,58,0.00,,,0.00,663,Wunderground v.1.15,2013-11-03 16:49:00,
2013-11-03 10:54:00,59.4,44.2,30.21,ENE,69,2.0,3.0,57,0.00,,,0.00,668,Wunderground v.1.15,2013-11-03 16:54:00,
2013-11-03 11:01:00,59.2,42.1,30.20,ESE,114,2.0,2.0,53,0.00,,,0.00,671,Wunderground v.1.15,2013-11-03 17:01:00,
2013-11-03 11:11:00,59.0,41.9,30.20,NNE,29,2.0,11.0,53,0.00,,,0.00,680,Wunderground v.1.15,2013-11-03 17:11:00,
2013-11-03 11:16:00,59.1,42.5,30.20,East,99,3.0,11.0,54,0.00,,,0.00,682,Wunderground v.1.15,2013-11-03 17:16:00,
2013-11-03 11:22:00,59.4,42.3,30.20,NE,41,3.0,7.0,53,0.00,,,0.00,687,Wunderground v.1.15,2013-11-03 17:22:00,
2013-11-03 11:27:00,59.4,42.7,30.19,ENE,67,3.0,7.0,54,0.00,,,0.00,687,Wunderground v.1.15,2013-11-03 17:27:00,
2013-11-03 11:32:00,59.8,43.1,30.19,ENE,63,1.0,4.0,54,0.00,,,0.00,689,Wunderground v.1.15,2013-11-03 17:32:00,
2013-11-03 11:41:00,60.2,43.5,30.18,NE,36,1.0,1.0,54,0.00,,,0.00,691,Wunderground v.1.15,2013-11-03 17:41:00,
2013-11-03 11:46:00,60.4,44.6,30.18,NNE,32,1.0,1.0,56,0.00,,,0.00,694,Wunderground v.1.15,2013-11-03 17:46:00,
2013-11-03 11:51:00,60.5,43.8,30.19,SE,142,1.0,1.0,54,0.00,,,0.00,691,Wunderground v.1.15,2013-11-03 17:51:00,
2013-11-03 11:56:00,60.5,44.7,30.18,East,86,0.0,1.0,56,0.00,,,0.00,689,Wunderground v.1.15,2013-11-03 17:56:00,
2013-11-03 12:01:00,60.9,44.6,30.18,East,95,0.0,0.0,55,0.00,,,0.00,691,Wunderground v.1.15,2013-11-03 18:01:00,
2013-11-03 12:07:00,60.9,44.6,30.18,ESE,102,0.0,0.0,55,0.00,,,0.00,687,Wunderground v.1.15,2013-11-03 18:07:00,
2013-11-03 12:12:00,61.0,45.2,30.18,ENE,70,0.0,0.0,56,0.00,,,0.00,686,Wunderground v.1.15,2013-11-03 18:12:00,
2013-11-03 12:17:00,61.4,43.6,30.17,ENE,73,0.0,2.0,52,0.00,,,0.00,684,Wunderground v.1.15,2013-11-03 18:17:00,
2013-11-03 12:28:00,61.4,45.1,30.16,NE,41,1.0,5.0,55,0.00,,,0.00,680,Wunderground v.1.15,2013-11-03 18:28:00,
2013-11-03 12:33:00,61.6,45.3,30.16,East,81,0.0,1.0,55,0.00,,,0.00,675,Wunderground v.1.15,2013-11-03 18:33:00,
2013-11-03 12:38:00,61.7,44.9,30.16,ESE,120,1.0,3.0,54,0.00,,,0.00,670,Wunderground v.1.15,2013-11-03 18:38:00,
2013-11-03 12:43:00,61.8,45.5,30.16,ESE,115,1.0,1.0,55,0.00,,,0.00,666,Wunderground v.1.15,2013-11-03 18:43:00,
2013-11-03 12:49:00,61.9,44.1,30.15,North,352,1.0,4.0,52,0.00,,,0.00,661,Wunderground v.1.15,2013-11-03 18:49:00,
2013-11-03 12:54:00,61.9,44.6,30.15,East,88,2.0,2.0,53,0.00,,,0.00,654,Wunderground v.1.15,2013-11-03 18:54:00,
2013-11-03 12:59:00,62.1,44.8,30.14,ENE,59,1.0,2.0,53,0.00,,,0.00,647,Wunderground v.1.15,2013-11-03 18:59:00,
2013-11-03 13:05:00,62.2,43.8,30.14,SE,124,1.0,4.0,51,0.00,,,0.00,638,Wunderground v.1.15,2013-11-03 19:05:00,
2013-11-03 13:10:00,62.3,44.4,30.14,ENE,68,2.0,3.0,52,0.00,,,0.00,631,Wunderground v.1.15,2013-11-03 19:10:00,
2013-11-03 13:16:00,62.3,43.9,30.14,NE,41,3.0,7.0,51,0.00,,,0.00,621,Wunderground v.1.15,2013-11-03 19:16:00,
2013-11-03 13:23:00,62.6,44.2,30.13,East,96,1.0,2.0,51,0.00,,,0.00,612,Wunderground v.1.15,2013-11-03 19:23:00,
2013-11-03 13:28:00,62.8,44.9,30.13,ESE,113,1.0,2.0,52,0.00,,,0.00,601,Wunderground v.1.15,2013-11-03 19:28:00,
2013-11-03 13:34:00,63.4,46.0,30.13,ESE,113,0.0,2.0,53,0.00,,,0.00,592,Wunderground v.1.15,2013-11-03 19:34:00,
2013-11-03 13:39:00,63.5,45.0,30.13,SSE,160,1.0,2.0,51,0.00,,,0.00,584,Wunderground v.1.15,2013-11-03 19:39:00,
2013-11-03 13:44:00,63.6,45.6,30.13,ENE,63,1.0,6.0,52,0.00,,,0.00,573,Wunderground v.1.15,2013-11-03 19:44:00,
2013-11-03 13:49:00,63.4,44.4,30.13,ENE,64,2.0,6.0,50,0.00,,,0.00,561,Wunderground v.1.15,2013-11-03 19:49:00,
2013-11-03 13:55:00,63.2,44.2,30.13,NE,52,3.0,4.0,50,0.00,,,0.00,547,Wunderground v.1.15,2013-11-03 19:55:00,
2013-11-03 14:00:00,63.4,44.9,30.12,ENE,59,2.0,2.0,51,0.00,,,0.00,534,Wunderground v.1.15,2013-11-03 20:00:00,
2013-11-03 14:05:00,63.4,44.9,30.13,East,79,1.0,2.0,51,0.00,,,0.00,524,Wunderground v.1.15,2013-11-03 20:05:00,
2013-11-03 14:11:00,63.7,45.2,30.12,SE,139,1.0,2.0,51,0.00,,,0.00,512,Wunderground v.1.15,2013-11-03 20:11:00,
2013-11-03 14:16:00,63.6,45.1,30.12,SSE,162,1.0,3.0,51,0.00,,,0.00,499,Wunderground v.1.15,2013-11-03 20:16:00,
2013-11-03 14:27:00,64.0,47.5,30.12,ENE,71,1.0,4.0,55,0.00,,,0.00,471,Wunderground v.1.15,2013-11-03 20:27:00,
2013-11-03 14:33:00,63.9,45.9,30.12,ESE,120,0.0,1.0,52,0.00,,,0.00,455,Wunderground v.1.15,2013-11-03 20:33:00,
2013-11-03 14:39:00,63.8,46.3,30.11,NE,56,1.0,7.0,53,0.00,,,0.00,438,Wunderground v.1.15,2013-11-03 20:39:00,
2013-11-03 14:44:00,63.9,45.9,30.11,ENE,67,1.0,1.0,52,0.00,,,0.00,422,Wunderground v.1.15,2013-11-03 20:44:00,
2013-11-03 14:49:00,64.0,46.0,30.11,ESE,119,1.0,4.0,52,0.00,,,0.00,411,Wunderground v.1.15,2013-11-03 20:49:00,
2013-11-03 14:54:00,63.9,45.9,30.11,ENE,75,1.0,7.0,52,0.00,,,0.00,396,Wunderground v.1.15,2013-11-03 20:54:00,
2013-11-03 15:00:00,63.7,45.7,30.11,ESE,104,1.0,1.0,52,0.00,,,0.00,380,Wunderground v.1.15,2013-11-03 21:00:00,
2013-11-03 15:05:00,63.8,45.8,30.11,ESE,117,1.0,1.0,52,0.00,,,0.00,364,Wunderground v.1.15,2013-11-03 21:05:00,
2013-11-03 15:10:00,63.9,45.4,30.11,East,85,0.0,1.0,51,0.00,,,0.00,350,Wunderground v.1.15,2013-11-03 21:10:00,
2013-11-03 15:16:00,63.9,45.9,30.11,East,97,1.0,5.0,52,0.00,,,0.00,332,Wunderground v.1.15,2013-11-03 21:16:00,
2013-11-03 15:28:00,63.6,45.1,30.10,ESE,102,1.0,3.0,51,0.00,,,0.00,294,Wunderground v.1.15,2013-11-03 21:28:00,
2013-11-03 15:33:00,63.6,46.1,30.10,ENE,59,1.0,3.0,53,0.00,,,0.00,276,Wunderground v.1.15,2013-11-03 21:33:00,
2013-11-03 15:39:00,63.6,46.1,30.11,East,101,1.0,3.0,53,0.00,,,0.00,257,Wunderground v.1.15,2013-11-03 21:39:00,
2013-11-03 15:44:00,63.8,46.3,30.10,East,101,0.0,1.0,53,0.00,,,0.00,237,Wunderground v.1.15,2013-11-03 21:44:00,
2013-11-03 15:58:00,63.3,45.9,30.10,ESE,115,0.0,1.0,53,0.00,,,0.00,185,Wunderground v.1.15,2013-11-03 21:58:00,
2013-11-03 16:16:00,62.6,45.2,30.10,East,101,0.0,0.0,53,0.00,,,0.00,114,Wunderground v.1.15,2013-11-03 22:16:00,
2013-11-03 16:49:00,61.3,45.9,30.11,ESE,109,0.0,0.0,57,0.00,,,0.00,16,Wunderground v.1.15,2013-11-03 22:49:00,
2013-11-03 16:54:00,60.9,46.0,30.11,ESE,109,0.0,0.0,58,0.00,,,0.00,12,Wunderground v.1.15,2013-11-03 22:54:00,
2013-11-03 16:59:00,60.5,46.1,30.11,ESE,109,0.0,0.0,59,0.00,,,0.00,11,Wunderground v.1.15,2013-11-03 22:59:00,
2013-11-03 17:05:00,60.0,46.5,30.11,ESE,109,0.0,0.0,61,0.00,,,0.00,7,Wunderground v.1.15,2013-11-03 23:05:00,
2013-11-03 17:10:00,59.5,46.5,30.12,ESE,109,0.0,0.0,62,0.00,,,0.00,5,Wunderground v.1.15,2013-11-03 23:10:00,
2013-11-03 17:16:00,59.0,46.4,30.12,ESE,109,0.0,0.0,63,0.00,,,0.00,0,Wunderground v.1.15,2013-11-03 23:16:00,
2013-11-03 17:28:00,57.6,46.7,30.13,ESE,109,0.0,0.0,67,0.00,,,0.00,0,Wunderground v.1.15,2013-11-03 23:28:00,
2013-11-03 17:33:00,57.1,46.6,30.13,ESE,109,0.0,0.0,68,0.00,,,0.00,0,Wunderground v.1.15,2013-11-03 23:33:00,
2013-11-03 17:39:00,56.4,46.7,30.13,ESE,109,0.0,0.0,70,0.00,,,0.00,0,Wunderground v.1.15,2013-11-03 23:39:00,
2013-11-03 17:44:00,55.9,47.0,30.13,ESE,109,0.0,0.0,72,0.00,,,0.00,0,Wunderground v.1.15,2013-11-03 23:44:00,
2013-11-03 17:49:00,55.4,46.5,30.13,ESE,109,0.0,0.0,72,0.00,,,0.00,0,Wunderground v.1.15,2013-11-03 23:49:00,
2013-11-03 17:55:00,54.9,46.4,30.14,ESE,109,0.0,0.0,73,0.00,,,0.00,0,Wunderground v.1.15,2013-11-03 23:55:00,
2013-11-03 18:00:00,54.5,46.0,30.14,ESE,109,0.0,0.0,73,0.00,,,0.00,0,Wunderground v.1.15,2013-11-04 00:00:00,
2013-11-03 18:06:00,54.1,46.0,30.15,ESE,109,0.0,0.0,74,0.00,,,0.00,0,Wunderground v.1.15,2013-11-04 00:06:00,
2013-11-03 18:17:00,53.4,46.0,30.15,ESE,109,0.0,0.0,76,0.00,,,0.00,0,Wunderground v.1.15,2013-11-04 00:17:00,
2013-11-03 18:35:00,52.7,46.0,30.16,ESE,109,0.0,0.0,78,0.00,,,0.00,0,Wunderground v.1.15,2013-11-04 00:35:00,
2013-11-03 18:46:00,52.3,45.6,30.17,ESE,109,0.0,0.0,78,0.00,,,0.00,0,Wunderground v.1.15,2013-11-04 00:46:00,
2013-11-03 18:51:00,52.1,45.8,30.17,ESE,109,0.0,0.0,79,0.00,,,0.00,0,Wunderground v.1.15,2013-11-04 00:51:00,
2013-11-03 18:57:00,51.9,46.3,30.17,ESE,109,0.0,0.0,81,0.00,,,0.00,0,Wunderground v.1.15,2013-11-04 00:57:00,
2013-11-03 19:10:00,51.5,46.2,30.17,ESE,109,0.0,0.0,82,0.00,,,0.00,0,Wunderground v.1.15,2013-11-04 01:10:00,
2013-11-03 19:16:00,51.4,45.8,30.17,ESE,109,0.0,0.0,81,0.00,,,0.00,0,Wunderground v.1.15,2013-11-04 01:16:00,
2013-11-03 19:26:00,51.7,45.7,30.17,ESE,109,0.0,0.0,80,0.00,,,0.00,0,Wunderground v.1.15,2013-11-04 01:26:00,
2013-11-03 19:32:00,51.8,45.8,30.17,ESE,109,0.0,0.0,80,0.00,,,0.00,0,Wunderground v.1.15,2013-11-04 01:32:00,
2013-11-03 19:38:00,51.9,45.9,30.17,ESE,109,0.0,0.0,80,0.00,,,0.00,0,Wunderground v.1.15,2013-11-04 01:38:00,
2013-11-03 19:44:00,51.9,46.3,30.17,ESE,109,0.0,0.0,81,0.00,,,0.00,0,Wunderground v.1.15,2013-11-04 01:44:00,
2013-11-03 19:49:00,51.7,45.7,30.17,ESE,109,0.0,0.0,80,0.00,,,0.00,0,Wunderground v.1.15,2013-11-04 01:49:00,
2013-11-03 19:54:00,51.7,46.1,30.17,ESE,109,0.0,0.0,81,0.00,,,0.00,0,Wunderground v.1.15,2013-11-04 01:54:00,
2013-11-03 19:59:00,51.5,46.2,30.17,ESE,109,0.0,0.0,82,0.00,,,0.00,0,Wunderground v.1.15,2013-11-04 01:59:00,
2013-11-03 20:05:00,51.2,46.2,30.17,ESE,109,0.0,0.0,83,0.00,,,0.00,0,Wunderground v.1.15,2013-11-04 02:05:00,
2013-11-03 20:10:00,51.0,46.3,30.17,ESE,109,0.0,0.0,84,0.00,,,0.00,0,Wunderground v.1.15,2013-11-04 02:10:00,
2013-11-03 20:16:00,50.9,46.2,30.17,ESE,109,0.0,0.0,84,0.00,,,0.00,0,Wunderground v.1.15,2013-11-04 02:16:00,
2013-11-03 20:28:00,50.4,45.7,30.17,ESE,109,0.0,0.0,84,0.00,,,0.00,0,Wunderground v.1.15,2013-11-04 02:28:00,
2013-11-03 20:33:00,50.2,45.6,30.17,ESE,109,0.0,0.0,84,0.00,,,0.00,0,Wunderground v.1.15,2013-11-04 02:33:00,
2013-11-03 20:49:00,50.1,45.5,30.17,ESE,109,0.0,0.0,84,0.00,,,0.00,0,Wunderground v.1.15,2013-11-04 02:49:00,
2013-11-03 20:54:00,50.0,45.4,30.18,ESE,109,0.0,0.0,84,0.00,,,0.00,0,Wunderground v.1.15,2013-11-04 02:54:00,
2013-11-03 21:20:00,49.0,45.3,30.17,ESE,109,0.0,0.0,87,0.00,,,0.00,0,Wunderground v.1.15,2013-11-04 03:20:00,
2013-11-03 21:26:00,48.7,45.3,30.17,ESE,109,0.0,0.0,88,0.00,,,0.00,0,Wunderground v.1.15,2013-11-04 03:26:00,
2013-11-03 21:31:00,48.5,45.4,30.17,ESE,109,0.0,0.0,89,0.00,,,0.00,0,Wunderground v.1.15,2013-11-04 03:31:00,
2013-11-03 21:37:00,48.4,45.3,30.17,ESE,109,0.0,0.0,89,0.00,,,0.00,0,Wunderground v.1.15,2013-11-04 03:37:00,
2013-11-03 21:42:00,48.3,45.2,30.17,ESE,109,0.0,0.0,89,0.00,,,0.00,0,Wunderground v.1.15,2013-11-04 03:42:00,
2013-11-03 21:47:00,48.3,45.2,30.17,ESE,109,0.0,0.0,89,0.00,,,0.00,0,Wunderground v.1.15,2013-11-04 03:47:00,
2013-11-03 21:52:00,48.4,45.0,30.16,ESE,109,0.0,0.0,88,0.00,,,0.00,0,Wunderground v.1.15,2013-11-04 03:52:00,
2013-11-03 21:57:00,48.3,44.9,30.16,ESE,109,0.0,0.0,88,0.00,,,0.00,0,Wunderground v.1.15,2013-11-04 03:57:00,
2013-11-03 22:02:00,48.2,44.8,30.16,ESE,109,0.0,0.0,88,0.00,,,0.00,0,Wunderground v.1.15,2013-11-04 04:02:00,
2013-11-03 22:08:00,48.1,44.7,30.17,ESE,109,0.0,0.0,88,0.00,,,0.00,0,Wunderground v.1.15,2013-11-04 04:08:00,
2013-11-03 22:13:00,48.0,44.9,30.17,ESE,109,0.0,0.0,89,0.00,,,0.00,0,Wunderground v.1.15,2013-11-04 04:13:00,
2013-11-03 22:26:00,47.6,44.8,30.17,ESE,109,0.0,0.0,90,0.00,,,0.00,0,Wunderground v.1.15,2013-11-04 04:26:00,
2013-11-03 22:31:00,47.4,44.6,30.17,ESE,109,0.0,0.0,90,0.00,,,0.00,0,Wunderground v.1.15,2013-11-04 04:31:00,
2013-11-03 22:36:00,47.2,44.4,30.17,ESE,109,0.0,0.0,90,0.00,,,0.00,0,Wunderground v.1.15,2013-11-04 04:36:00,
2013-11-03 22:47:00,46.8,44.6,30.16,ESE,109,0.0,0.0,92,0.00,,,0.00,0,Wunderground v.1.15,2013-11-04 04:47:00,
2013-11-03 22:57:00,46.5,44.3,30.17,ESE,109,0.0,0.0,92,0.00,,,0.00,0,Wunderground v.1.15,2013-11-04 04:57:00,
2013-11-03 23:18:00,45.7,43.5,30.17,ESE,109,0.0,0.0,92,0.00,,,0.00,0,Wunderground v.1.15,2013-11-04 05:18:00,
2013-11-03 23:28:00,45.6,44.0,30.17,ESE,109,0.0,0.0,94,0.00,,,0.00,0,Wunderground v.1.15,2013-11-04 05:28:00,
2013-11-03 23:33:00,45.6,44.0,30.17,ESE,109,0.0,0.0,94,0.00,,,0.00,0,Wunderground v.1.15,2013-11-04 05:33:00,
2013-11-03 23:34:00,45.5,43.9,30.17,ESE,109,0.0,0.0,94,0.00,,,0.00,0,Wunderground v.1.15,2013-11-04 05:34:00,
2013-11-03 23:35:00,45.5,43.9,30.17,ESE,109,0.0,0.0,94,0.00,,,0.00,0,Wunderground v.1.15,2013-11-04 05:35:00,
2013-11-03 23:59:00,45.3,44.0,30.16,ESE,109,0.0,0.0,95,0.00,,,0.00,0,Wunderground v.1.15,2013-11-04 05:59:00,